Weather History for Winslow, AZ

Change the Weather History Date:

Thursday, March 7, 2013

  Actual Average Record
Temperature  
Mean Temperature 51 °F 45 °F  
Max Temperature 70 °F 61 °F 79 °F (1972)
Min Temperature 32 °F 29 °F 6 °F (1917)
Degree Days  
Heating Degree Days 14 20  
Month to date heating degree days 125 144  
Since 1 July heating degree days 3513 3639  
Cooling Degree Days 0 0  
Month to date cooling degree days 0 0  
Year to date cooling degree days 0 0  
Growing Degree Days 1 (Base 50)    
Moisture  
Dew Point 16 °F    
Average Humidity 32    
Maximum Humidity 56    
Minimum Humidity 7    
Precipitation  
Precipitation 0.00 in 0.01 in 0.15 in (1958)
Month to date precipitation 0.00 0.11  
Year to date precipitation 1.14 1.09  
Sea Level Pressure  
Sea Level Pressure 29.90 in    
Wind  
Wind Speed 11 mph (SSE)    
Max Wind Speed 29 mph    
Max Gust Speed 37 mph    
Visibility 10 miles    
Events      
T = Trace of Precipitation, MM = Missing Value Source: NWS Daily Summary

Daily Weather History Graph

Daily Weather History Graph

Search for Another Location

Airport:

Trip Planner

Search our weather history database for the weather conditions in past years. The results will help you decide how hot, cold, wet, or windy it might be!

Date:

Astronomy

Mar. 07, 2013 Rise Set
Actual Time 6:44 AM MST 6:24 PM MST
Civil Twilight 6:18 AM MST 6:49 PM MST
Nautical Twilight 5:49 AM MST 7:18 PM MST
Astronomical Twilight 5:20 AM MST 7:48 PM MST
Moon 3:38 AM MST (3/7) 2:23 PM MST (3/7)
Length of Visible Light 12h 30m
Length of Day
11h 40m
Waning Crescent, 19% of the Moon is Illuminated
Mar 7
Waning Crescent
Mar 11
New
Mar 19
First Quarter
Mar 27
Full
Apr 2
Last Quarter

Hourly Weather History & Observations

Time (MST) Temp. Windchill Dew Point Humidity Pressure Visibility Wind Dir Wind Speed Gust Speed Precip Events Conditions
12:56 AM 39.0 °F - 19.9 °F 46% 29.91 in 10.0 mi Calm Calm - N/A   Clear
1:56 AM 37.0 °F - 19.9 °F 50% 29.91 in 10.0 mi Calm Calm - N/A   Clear
2:56 AM 37.9 °F 32.1 °F 21.0 °F 51% 29.90 in 10.0 mi East 8.1 mph - N/A   Clear
3:56 AM 35.1 °F 28.6 °F 19.9 °F 54% 29.90 in 10.0 mi East 8.1 mph - N/A   Clear
4:56 AM 33.1 °F 30.0 °F 18.0 °F 54% 29.92 in 10.0 mi SSE 3.5 mph - N/A   Clear
5:56 AM 34.0 °F 26.6 °F 19.0 °F 54% 29.93 in 10.0 mi ESE 9.2 mph - N/A   Clear
6:56 AM 33.1 °F 25.5 °F 19.0 °F 56% 29.99 in 10.0 mi ESE 9.2 mph - N/A   Clear
7:56 AM 36.0 °F 29.0 °F 19.9 °F 52% 30.01 in 10.0 mi ESE 9.2 mph - N/A   Clear
8:56 AM 44.1 °F 38.1 °F 21.0 °F 40% 29.99 in 10.0 mi ESE 11.5 mph - N/A   Clear
9:56 AM 53.1 °F - 23.0 °F 31% 29.95 in 10.0 mi East 8.1 mph - N/A   Clear
10:56 AM 62.1 °F - 23.0 °F 22% 29.91 in 10.0 mi East 10.4 mph - N/A   Clear
11:56 AM 66.0 °F - 16.0 °F 15% 29.88 in 10.0 mi South 13.8 mph 24.2 mph N/A   Clear
12:56 PM 69.1 °F - 10.9 °F 11% 29.86 in 10.0 mi SSW 18.4 mph 27.6 mph N/A   Clear
1:56 PM 69.1 °F - 9.0 °F 10% 29.83 in 10.0 mi SSW 18.4 mph 28.8 mph N/A   Clear
2:56 PM 69.1 °F - 3.0 °F 7% 29.81 in 10.0 mi SW 20.7 mph 28.8 mph N/A   Clear
3:56 PM 66.9 °F - 3.9 °F 8% 29.83 in 10.0 mi SW 24.2 mph 32.2 mph N/A   Clear
4:56 PM 64.9 °F - 9.0 °F 11% 29.84 in 10.0 mi SSW 21.9 mph 31.1 mph N/A   Clear
5:56 PM 61.0 °F - 12.9 °F 15% 29.87 in 10.0 mi South 13.8 mph - N/A   Clear
6:56 PM 55.0 °F - 12.0 °F 18% 29.92 in 10.0 mi SSW 13.8 mph - N/A   Clear
7:56 PM 51.1 °F - 15.1 °F 24% 29.93 in 10.0 mi South 8.1 mph - N/A   Clear
8:56 PM 46.9 °F - 17.1 °F 30% 29.92 in 10.0 mi SSW 9.2 mph - N/A   Clear
9:56 PM 44.1 °F 39.5 °F 18.0 °F 35% 29.90 in 10.0 mi SSW 8.1 mph - N/A   Clear
10:56 PM 39.9 °F 37.8 °F 19.0 °F 43% 29.88 in 10.0 mi South 3.5 mph - N/A   Clear
11:56 PM 39.9 °F 36.7 °F 19.9 °F 45% 29.86 in 10.0 mi East 4.6 mph - N/A   Clear